Location: Newark
(51.0000°N, 11.4100°E)
Time: 09:09:58
(UTC+00:00)

deb Explorer IX - All Passes

Search period start: 20 November 2019 00:00
Search period end: 30 November 2019 00:00
Orbit: 546 x 1105 km, 38.8° (Epoch: 19 November)

Date Brightness Start Highest point End Pass type
(mag) Time Alt. Az. Time Alt. Az. Time Alt. Az.
20 Nov - 00:08:15 10° SSW 00:12:30 18° SSE 00:16:24 10° ESE night (unlit)
20 Nov - 01:53:56 10° SW 01:58:38 24° S 02:02:50 10° SE visible
20 Nov - 03:41:05 10° WSW 03:44:36 17° SSW 03:47:49 10° SSE visible
20 Nov - 23:45:59 10° SSW 23:50:28 19° SSE 23:54:36 10° ESE night (unlit)
21 Nov - 01:31:43 10° SW 01:36:38 24° S 01:41:01 10° SE night (unlit)
21 Nov - 03:18:54 10° WSW 03:22:38 18° SSW 03:26:01 10° SSE visible
21 Nov - 23:23:42 10° SSW 23:28:25 20° SSE 23:32:46 10° ESE night (unlit)
22 Nov - 01:09:30 10° SW 01:14:37 25° S 01:19:11 10° SE night (unlit)
22 Nov - 02:56:42 10° WSW 03:00:38 18° SSW 03:04:13 10° SSE visible
22 Nov - 23:01:26 10° SSW 23:06:22 21° SSE 23:10:55 10° ESE night (unlit)
23 Nov - 00:47:17 10° SW 00:52:35 26° S 00:57:21 10° SE night (unlit)
23 Nov - 02:34:30 10° WSW 02:38:38 19° SSW 02:42:24 10° SSE visible
23 Nov - 22:39:10 10° SSW 22:44:16 22° SSE 22:49:02 10° ESE night (unlit)
24 Nov - 00:25:03 10° SW 00:30:32 27° S 00:35:29 10° SE night (unlit)
24 Nov - 02:12:17 10° WSW 02:16:37 20° SSW 02:20:33 10° SSE night (unlit)
24 Nov - 20:35:02 10° SSE 20:36:12 10° SE 20:37:21 10° SE night (unlit)
24 Nov - 22:16:55 10° SSW 22:22:11 22° SSE 22:27:06 10° ESE night (unlit)
25 Nov - 00:02:49 10° WSW 00:08:28 28° S 00:13:35 10° SE night (unlit)
25 Nov - 01:50:03 10° WSW 01:54:35 20° SSW 01:58:42 10° SSE night (unlit)
25 Nov - 20:12:25 10° SSE 20:14:06 11° SE 20:15:45 10° SE night (unlit)
25 Nov - 21:54:41 10° SSW 22:00:05 23° SSE 22:05:10 10° ESE night (unlit)
25 Nov - 23:40:36 10° WSW 23:46:23 28° S 23:51:40 10° SE night (unlit)
26 Nov - 01:27:50 10° WSW 01:32:32 21° SSW 01:36:49 10° SSE night (unlit)
26 Nov - 19:49:57 10° SSE 19:51:59 11° SE 19:53:58 10° SE night (unlit)
26 Nov - 21:32:27 10° SSW 21:37:58 24° SSE 21:43:12 10° ESE night (unlit)
26 Nov - 23:18:22 10° WSW 23:24:17 29° S 23:29:44 10° SE night (unlit)
27 Nov - 01:05:36 10° WSW 01:10:28 21° SSW 01:14:55 10° SSE night (unlit)
27 Nov - 19:27:35 10° SSE 19:29:51 12° SE 19:32:05 10° SE night (unlit)
27 Nov - 21:10:14 10° SSW 21:15:50 24° SSE 21:21:12 10° ESE night (unlit)
27 Nov - 22:56:10 10° WSW 23:02:11 29° S 23:07:46 10° SE night (unlit)
28 Nov - 00:43:22 10° WSW 00:48:23 22° SSW 00:53:00 10° SSE night (unlit)
28 Nov - 19:05:16 10° SSE 19:07:43 12° SE 19:10:08 10° SE visible
28 Nov - 20:48:02 10° SW 20:53:41 25° SSE 20:59:11 10° ESE night (unlit)
28 Nov - 22:33:57 10° WSW 22:40:04 30° S 22:45:46 10° SE night (unlit)
29 Nov - 00:21:09 10° WSW 00:26:17 22° SSW 00:31:02 10° SSE night (unlit)
29 Nov - 18:43:01 10° SSE 18:45:34 12° SE 18:48:08 10° SE visible
29 Nov - 20:25:51 10° SW 20:31:32 25° SSE 20:37:07 10° ESE visible
29 Nov - 22:11:45 10° WSW 22:17:56 30° S 22:23:45 10° SE night (unlit)
